Home > Weather > Columbus > Past weeks

Flag for U.S.A. Weather for the Past 2 Weeks in Columbus, Ohio, U.S.A.

Now
36 °F

Clear.


Feels Like: 36 °F
Forecast: 30 / 47 °F
Wind: No wind

Location: Port Columbus International Airport

Current Time: Feb 6, 2016 at 9:17:16 PM

Latest Report: Feb 6, 2016 at 7:51 PM


Visibility: 10 mi

Pressure: 30.26 "Hg

Humidity: 42%

Dew point: 15 °F

Location of ColumbusLocation

Historic Weather in Columbus — Graph

°F

Columbus Temperature Yesterday

Maximum temperature yesterday: 38 °F (at 3:51 PM)
Minimum temperature yesterday: 20 °F (at 7:51 AM)
Average temperature yesterday: 30 °F

High & Low Weather Summary for the Past Weeks

 TemperatureHumidityPressure
High60 °F (Jan 31, 4:51 PM)97% (Feb 3, 9:51 AM)30.46 "Hg (Feb 3, 9:51 AM)
Low12 °F (Jan 24, 5:51 AM)29% (Feb 6, 2:51 PM)29.60 "Hg (Feb 3, 2:51 AM)
Average36 °F62%30.02 "Hg
* Reported Jan 22 6:51 PM — Feb 6 6:51 PM, Columbus, Weather by CustomWeather, © 2016

Note: Actual official high and low records may vary slightly from our data, if they occured in-between our weather recording intervals... More about our weather records

Advertising

Columbus Weather History for the Previous 24 Hours

 ConditionsComfort  
Time TempWeatherWind HumidityBarometerVisibility
6:51 PM
Sat, Feb 6
36 °FClear.3 mph42%30.26 "Hg10 mi
5:51 PM39 °FPassing clouds.6 mph38%30.27 "Hg10 mi
4:51 PM41 °FPassing clouds.9 mph33%30.26 "Hg10 mi
3:51 PM41 °FPassing clouds.10 mph29%30.25 "Hg10 mi
2:51 PM41 °FScattered clouds.9 mph29%30.26 "Hg10 mi
1:51 PM40 °FPassing clouds.12 mph30%30.28 "Hg10 mi
12:51 PM39 °FScattered clouds.7 mph33%30.31 "Hg10 mi
11:51 AM37 °FPassing clouds.7 mph46%30.34 "Hg10 mi
10:51 AM33 °FPassing clouds.6 mph61%30.36 "Hg9 mi
9:51 AM30 °FPassing clouds.No wind75%30.36 "Hg7 mi
8:51 AM28 °FScattered clouds.No wind78%30.36 "Hg7 mi
7:51 AM25 °FPassing clouds.3 mph81%30.36 "Hg7 mi
6:51 AM26 °FPassing clouds.No wind77%30.35 "Hg9 mi
5:51 AM27 °FPassing clouds.3 mph78%30.34 "Hg9 mi
4:51 AM27 °FPassing clouds.No wind78%30.34 "Hg10 mi
3:51 AM28 °FPassing clouds.No wind69%30.33 "Hg10 mi
2:51 AM29 °FPassing clouds.5 mph66%30.33 "Hg10 mi
1:51 AM31 °FPassing clouds.3 mph59%30.32 "Hg10 mi
12:51 AM31 °FPassing clouds.3 mph57%30.33 "Hg10 mi
11:51 PM
Fri, Feb 5
35 °FOvercast.10 mph46%30.33 "Hg10 mi
10:51 PM35 °FOvercast.8 mph48%30.34 "Hg10 mi
9:51 PM34 °FOvercast.7 mph50%30.36 "Hg10 mi
Weather by CustomWeather, © 2016

See weather overviewHow to use our weather pages